Volver al catálogo

CZ-6A DEB

ActivoPO
NORAD 60983·DEBRIS·🇨🇳 China

Lanzado Aug 6, 2024 desde Taiyuan Satellite Launch Center

Loading…

Próximos Pases (próximas 24 horas)

TLE

ActualizadoSource: Space-Track

Época: Sep 14, 2026, 05:24 UTC

1 60983U 24140MJ  26257.22527273  .00000809  00000-0  23394-3 0  9990
2 60983  88.7829 241.2511 0054668  20.0141 340.3188 14.42758808108578

Sigue CZ-6A DEB en tiempo real con AllMySat

Download on the App Store